• In Hungary
  • List of Countries
  • For 7 days
  • Water Temperature
  • Satellite Maps
  • Weather Map
  • News
  • Weather Widgets
  • user-avatar
    Login

    Hourly Weather Linz

    Today, 24 September, Sunday

    Time Temperature Precipitation Wind Pressure Humidity
    00:00 +12°C° 0 mm 1 mps 736 mmHg 91%
    01:00 +11°C° 0 mm 1 mps 736 mmHg 91%
    02:00 +11°C° 0 mm 1 mps 736 mmHg 92%
    03:00 +11°C° 0 mm 1 mps 736 mmHg 92%
    04:00 +10°C° 0 mm 0 mps 736 mmHg 92%
    05:00 +10°C° 0 mm 0 mps 736 mmHg 92%
    06:00 +10°C° 0 mm 0 mps 736 mmHg 91%
    07:00 +11°C° 0 mm 0 mps 736 mmHg 90%
    08:00 +12°C° 0 mm 0 mps 736 mmHg 86%
    09:00 +14°C° 0 mm 0 mps 737 mmHg 81%
    10:00 +16°C° 0 mm 1 mps 737 mmHg 76%
    11:00 +18°C° 0.1 mm 1 mps 737 mmHg 72%
    12:00 +19°C° 0.1 mm 1 mps 737 mmHg 67%
    13:00 +20°C° 0.1 mm 1 mps 736 mmHg 63%
    14:00 +20°C° 0.1 mm 1 mps 736 mmHg 65%
    15:00 +19°C° 0.1 mm 1 mps 736 mmHg 67%
    16:00 +19°C° 0.1 mm 1 mps 736 mmHg 69%
    17:00 +16°C° 0.1 mm 1 mps 736 mmHg 76%
    18:00 +15°C° 0.1 mm 1 mps 736 mmHg 82%
    19:00 +12°C° 0.1 mm 0 mps 736 mmHg 89%
    20:00 +12°C° 0 mm 1 mps 736 mmHg 90%
    21:00 +12°C° 0 mm 1 mps 737 mmHg 92%
    22:00 +12°C° 0 mm 1 mps 737 mmHg 93%
    23:00 +11°C° 0 mm 1 mps 737 mmHg 93%

    Tomorrow, 25 September, Monday

    Time Temperature Precipitation Wind Pressure Humidity
    00:00 +11°C° 0 mm 1 mps 737 mmHg 94%
    01:00 +11°C° 0 mm 1 mps 736 mmHg 94%
    02:00 +10°C° 0 mm 1 mps 736 mmHg 94%
    03:00 +9°C° 0 mm 0 mps 736 mmHg 94%
    04:00 +9°C° 0 mm 0 mps 736 mmHg 94%
    05:00 +9°C° 0 mm 0 mps 736 mmHg 93%
    06:00 +10°C° 0 mm 0 mps 736 mmHg 93%
    07:00 +10°C° 0 mm 0 mps 736 mmHg 92%
    08:00 +13°C° 0 mm 1 mps 736 mmHg 85%
    09:00 +15°C° 0 mm 1 mps 736 mmHg 78%
    10:00 +18°C° 0 mm 1 mps 737 mmHg 72%
    11:00 +19°C° 0.1 mm 1 mps 736 mmHg 68%
    12:00 +19°C° 0.1 mm 2 mps 736 mmHg 64%
    13:00 +20°C° 0.1 mm 2 mps 736 mmHg 60%
    14:00 +20°C° 0.1 mm 2 mps 736 mmHg 63%
    15:00 +19°C° 0.1 mm 2 mps 736 mmHg 66%
    16:00 +19°C° 0.1 mm 2 mps 735 mmHg 69%
    17:00 +17°C° 0.1 mm 2 mps 736 mmHg 75%
    18:00 +15°C° 0.1 mm 2 mps 736 mmHg 81%
    19:00 +14°C° 0.1 mm 2 mps 736 mmHg 87%
    20:00 +13°C° 0 mm 2 mps 736 mmHg 88%
    21:00 +13°C° 0 mm 2 mps 737 mmHg 89%
    22:00 +12°C° 0 mm 2 mps 737 mmHg 89%
    23:00 +12°C° 0 mm 2 mps 737 mmHg 90%

    Day after tomorrow, 26 September, Tuesday

    Time Temperature Precipitation Wind Pressure Humidity
    00:00 +11°C° 0 mm 1 mps 737 mmHg 91%
    01:00 +11°C° 0 mm 1 mps 737 mmHg 92%
    02:00 +11°C° 0 mm 1 mps 737 mmHg 92%
    03:00 +10°C° 0 mm 1 mps 737 mmHg 92%
    04:00 +10°C° 0 mm 1 mps 737 mmHg 92%
    05:00 +10°C° 0 mm 1 mps 737 mmHg 91%
    06:00 +11°C° 0 mm 1 mps 738 mmHg 90%
    07:00 +11°C° 0 mm 1 mps 738 mmHg 89%
    08:00 +13°C° 0 mm 1 mps 738 mmHg 81%
    09:00 +16°C° 0 mm 1 mps 738 mmHg 72%
    10:00 +19°C° 0 mm 1 mps 738 mmHg 64%
    11:00 +20°C° 0 mm 1 mps 738 mmHg 62%
    12:00 +20°C° 0 mm 2 mps 738 mmHg 59%
    13:00 +21°C° 0 mm 2 mps 738 mmHg 57%
    14:00 +21°C° 0.1 mm 2 mps 738 mmHg 61%
    15:00 +20°C° 0.1 mm 2 mps 738 mmHg 64%
    16:00 +20°C° 0.1 mm 2 mps 738 mmHg 68%
    17:00 +18°C° 0.1 mm 2 mps 738 mmHg 75%
    18:00 +16°C° 0.1 mm 2 mps 738 mmHg 82%
    19:00 +14°C° 0.1 mm 2 mps 738 mmHg 89%
    20:00 +14°C° 0 mm 2 mps 738 mmHg 90%
    21:00 +13°C° 0 mm 1 mps 739 mmHg 92%
    22:00 +13°C° 0 mm 1 mps 739 mmHg 93%
    23:00 +12°C° 0 mm 1 mps 739 mmHg 93%

    27 September, Wednesday

    Time Temperature Precipitation Wind Pressure Humidity
    00:00 +12°C° 0 mm 1 mps 739 mmHg 93%
    01:00 +12°C° 0 mm 1 mps 739 mmHg 93%
    02:00 +11°C° 0 mm 1 mps 739 mmHg 93%
    03:00 +11°C° 0 mm 1 mps 739 mmHg 93%
    04:00 +11°C° 0 mm 1 mps 739 mmHg 93%
    05:00 +11°C° 0 mm 1 mps 739 mmHg 92%
    06:00 +12°C° 0 mm 1 mps 740 mmHg 91%
    07:00 +12°C° 0 mm 1 mps 740 mmHg 90%
    08:00 +14°C° 0 mm 1 mps 740 mmHg 82%
    09:00 +16°C° 0 mm 1 mps 740 mmHg 75%
    10:00 +19°C° 0 mm 1 mps 740 mmHg 67%
    11:00 +19°C° 0 mm 2 mps 740 mmHg 64%
    12:00 +20°C° 0 mm 2 mps 740 mmHg 61%
    13:00 +21°C° 0 mm 2 mps 739 mmHg 58%
    14:00 +21°C° 0.1 mm 2 mps 739 mmHg 61%
    15:00 +21°C° 0.1 mm 2 mps 739 mmHg 65%
    16:00 +21°C° 0.1 mm 2 mps 739 mmHg 68%
    17:00 +19°C° 0.1 mm 2 mps 739 mmHg 75%
    18:00 +17°C° 0.1 mm 2 mps 740 mmHg 82%
    19:00 +15°C° 0.1 mm 2 mps 740 mmHg 90%
    20:00 +14°C° 0 mm 2 mps 740 mmHg 90%
    21:00 +14°C° 0 mm 2 mps 740 mmHg 91%
    22:00 +13°C° 0 mm 2 mps 740 mmHg 92%
    23:00 +13°C° 0 mm 1 mps 740 mmHg 92%

    28 September, Thursday

    Time Temperature Precipitation Wind Pressure Humidity
    00:00 +13°C° 0 mm 1 mps 740 mmHg 92%
    01:00 +12°C° 0 mm 1 mps 740 mmHg 92%
    02:00 +12°C° 0 mm 1 mps 740 mmHg 92%
    03:00 +12°C° 0 mm 1 mps 740 mmHg 92%
    04:00 +11°C° 0 mm 1 mps 740 mmHg 92%
    05:00 +12°C° 0 mm 1 mps 741 mmHg 91%
    06:00 +12°C° 0 mm 1 mps 741 mmHg 90%
    07:00 +12°C° 0 mm 1 mps 741 mmHg 89%
    08:00 +15°C° 0 mm 1 mps 741 mmHg 81%
    09:00 +18°C° 0 mm 1 mps 742 mmHg 73%
    10:00 +20°C° 0 mm 1 mps 742 mmHg 64%
    11:00 +21°C° 0 mm 1 mps 741 mmHg 61%
    12:00 +22°C° 0 mm 1 mps 741 mmHg 58%
    13:00 +23°C° 0 mm 2 mps 741 mmHg 55%
    14:00 +23°C° 0 mm 2 mps 741 mmHg 58%
    15:00 +21°C° 0 mm 2 mps 741 mmHg 60%
    16:00 +21°C° 0 mm 2 mps 741 mmHg 63%
    17:00 +20°C° 0 mm 1 mps 741 mmHg 70%
    18:00 +18°C° 0 mm 1 mps 741 mmHg 78%
    19:00 +15°C° 0 mm 1 mps 741 mmHg 85%
    20:00 +14°C° 0 mm 1 mps 741 mmHg 85%
    21:00 +13°C° 0 mm 1 mps 741 mmHg 85%
    22:00 +13°C° 0 mm 1 mps 742 mmHg 85%
    23:00 +13°C° 0 mm 1 mps 742 mmHg 85%

    29 September, Friday

    Time Temperature Precipitation Wind Pressure Humidity
    00:00 +12°C° 0 mm 1 mps 741 mmHg 85%
    01:00 +12°C° 0 mm 1 mps 741 mmHg 85%
    02:00 +12°C° 0 mm 1 mps 741 mmHg 86%
    03:00 +11°C° 0 mm 1 mps 741 mmHg 86%
    04:00 +11°C° 0 mm 1 mps 741 mmHg 87%
    05:00 +11°C° 0 mm 1 mps 741 mmHg 86%
    06:00 +12°C° 0 mm 1 mps 741 mmHg 85%
    07:00 +12°C° 0 mm 1 mps 741 mmHg 85%
    08:00 +14°C° 0 mm 1 mps 741 mmHg 77%
    09:00 +18°C° 0 mm 1 mps 741 mmHg 69%
    10:00 +20°C° 0 mm 1 mps 740 mmHg 61%
    11:00 +21°C° 0 mm 1 mps 740 mmHg 58%
    12:00 +21°C° 0 mm 2 mps 740 mmHg 55%
    13:00 +23°C° 0 mm 2 mps 739 mmHg 52%
    14:00 +23°C° 0 mm 2 mps 739 mmHg 56%
    15:00 +21°C° 0 mm 2 mps 739 mmHg 59%
    16:00 +21°C° 0 mm 2 mps 738 mmHg 62%
    17:00 +19°C° 0 mm 2 mps 738 mmHg 69%
    18:00 +17°C° 0 mm 2 mps 738 mmHg 76%
    19:00 +14°C° 0 mm 1 mps 738 mmHg 83%
    20:00 +14°C° 0 mm 1 mps 738 mmHg 84%
    21:00 +13°C° 0 mm 1 mps 738 mmHg 86%
    22:00 +13°C° 0 mm 1 mps 739 mmHg 87%
    23:00 +12°C° 0 mm 1 mps 738 mmHg 87%
    Show more